Regional Weather Roundup
Issued by NWS

Home | Current Version | Previous Version | Graphics & Text | Print | Product List | Glossary On
Versions: 1 2 3 4 5 6 7 8 9 10 11 12 13 14 15 16 17 18 19 20 21 22 23 24 25 26 27 28 29 30 31 32 33 34 35 36 37 38 39 40 41 42 43 44 45 46 47 48 49 50
000
ASUS43 KMKX 260511
RWRWI

WISCONSIN REGIONAL WEATHER ROUNDUP
NATIONAL WEATHER SERVICE MILWAUKEE/SULLIVAN WI
1100 PM CST SAT FEB 25 2017

NOTE: "FAIR" INDICATES FEW OR NO CLOUDS BELOW 12,000 FEET WITH NO
SIGNIFICANT WEATHER AND/OR OBSTRUCTIONS TO VISIBILITY.

WIZ001-002-006>008-014>016-023>028-260600-
NORTHWEST WISCONSIN

CITY           SKY/WX    TMP DP  RH WIND       PRES   REMARKS
SUPERIOR ARPT  LGT SNOW  27  26  99 CALM      29.74F
ASHLAND        CLOUDY    27  18  69 S6        29.76F WCI  20
HAYWARD        CLOUDY    27  18  69 S12       29.76S WCI  17
SIREN          CLOUDY    28  19  68 SW15G23   29.77S WCI  16
CUMBERLAND     CLOUDY    23  18  80 S14       29.79F WCI  11
RICE LAKE      CLOUDY    24  16  74 S10G16    29.83S WCI  13
CHETEK         CLOUDY    23  15  73 SW9G17    29.83S WCI  13
LADYSMITH      CLOUDY    22  17  79 S9        29.83S WCI  12
EAU CLAIRE     PTCLDY    20  13  74 SW10      29.86F WCI   9
MENOMONIE      CLEAR     20  13  73 S7        29.86F WCI  11
NEW RICHMOND   CLOUDY    22  15  75 S14       29.82S WCI   9
OSCEOLA        CLOUDY    25  18  74 S6        29.84S WCI  18
$$

WIZ003>005-009-010-017-018-260600-
NORTH CENTRAL WISCONSIN

CITY           SKY/WX    TMP DP  RH WIND       PRES   REMARKS
MANITOWISH WTR CLOUDY    19  11  73 SW8       29.75F WCI   8
ARBOR VITAE    PTCLDY    19  12  72 SW7         N/A  WCI  10
WOODRUFF       PTCLDY    19  12  72 SW7         N/A  WCI  10
RHINELANDER    CLEAR     17   8  67 SW9       29.80S WCI   6
EAGLE RIVER    PTCLDY    18   9  69 SW5       29.77S WCI  11
LAND O LAKES   CLOUDY    17  11  77 SW3       29.78S
PHILLIPS       CLOUDY    19  14  80 S7        29.78F WCI  10
TOMAHAWK       PTCLDY    16  10  76 CALM      29.82S
MEDFORD        MOCLDY    15   9  76 SW10      29.83S WCI   2
MERRILL        NOT AVBL
$$

WIZ029-030-035-036-043>047-260600-
CENTRAL WISCONSIN

CITY           SKY/WX    TMP DP  RH WIND       PRES   REMARKS
WAUSAU         PTCLDY    17  10  74 S6        29.86S WCI   9
MOSINEE        PTCLDY    18  12  79 S9        29.88F HAZE    WCI   6
MARSHFIELD     CLEAR     17  10  74 SW10      29.86F WCI   5
STEVENS POINT  CLEAR     12   7  79 CALM      29.91S
WAUPACA        CLEAR     16   8  71 CALM      29.94S
WAUTOMA        CLEAR     14  10  84 MISG        N/A
WISC RAPIDS    CLEAR     18  11  74 SW9       29.92S WCI   7
CAMP DOUGLAS   CLEAR     21  11  65 S7        29.93F WCI  12
$$

WIZ011>013-019>022-031-037>040-048>050-260600-
NORTHEAST WISCONSIN

CITY           SKY/WX    TMP DP  RH WIND       PRES   REMARKS
ANTIGO         CLEAR     13   7  76 SW9       29.84S WCI   0
SHAWANO        CLEAR     17   9  70 CALM      29.91S
OCONTO         CLEAR     18   8  65 SW6       29.91S WCI   9
STURGEON BAY   CLEAR     17  10  74 SW9       29.92R WCI   6
GREEN BAY      CLEAR     20  11  68 SW10      29.93S WCI   9
MANITOWOC      CLEAR     19  11  70 W12       29.95R WCI   7
APPLETON       PTCLDY    19   9  63 SW10      29.92S WCI   8
CLINTONVILLE   CLEAR     12   5  73 S3        29.91F
OSHKOSH        CLEAR     19  10  68 SW7       29.94S WCI  10
$$

WIZ032>034-041-042-053>061-260600-
SOUTHWEST WISCONSIN

CITY           SKY/WX    TMP DP  RH WIND       PRES   REMARKS
LA CROSSE      CLOUDY    23  14  68 S7        29.95F WCI  15
SPARTA         PTCLDY    20  13  75 S3        29.95S
VIROQUA        CLOUDY    20  14  79 SW10      29.93F WCI   8
BOSCOBEL       CLOUDY    22  14  71 SW3       30.00F
PRAIRIE DU CHI CLOUDY    24  16  69 CALM      30.00S
PLATTEVILLE    CLOUDY    21  19  90 S6        30.00S WCI  13
$$

WIZ056-057-062-063-064-067-068-260600-
SOUTH CENTRAL WISCONSIN

CITY           SKY/WX    TMP DP  RH WIND       PRES   REMARKS
REEDSBURG      MOCLDY    19  13  75 SW6       29.97S WCI  11
BARABOO/DELLS  CLEAR     19  12  74 SW5       29.96F WCI  12
LONE ROCK      CLOUDY    21  13  71 SW3       30.00F
MINERAL POINT  MOCLDY    21  18  86 CALM      29.97F
MADISON        PTCLDY    20  13  74 SW7       29.99S WCI  11
MIDDLETON      CLEAR     20  15  81 CALM      29.99F
WATERTOWN      CLEAR     19  14  82 SW5       29.99S WCI  12
MONROE         CLEAR     21  16  79 SW6       29.98F WCI  14
JANESVILLE     CLEAR     21  16  79 SW3       30.01F
$$

WIZ051-052-058>065-066-070>072-260600-
SOUTHEAST WISCONSIN

CITY           SKY/WX    TMP DP  RH WIND       PRES   REMARKS
MILWAUKEE      PTCLDY    24  11  57 W9        30.00R WCI  14
WAUKESHA       CLOUDY    19  12  73 SW7       30.00R WCI  10
MILWAUKEE/TIMM PTCLDY    21  10  63 W9        30.00S WCI  11
RACINE         CLOUDY    22  13  68 W9        30.02R WCI  12
KENOSHA        CLOUDY    23  14  68 W8        30.01S WCI  14
FOND DU LAC    CLEAR     17   9  70 SW7       29.97R WCI   8
SHEBOYGAN      CLEAR     19  10  68 W13       29.96R WCI   6
WEST BEND      CLEAR     19  14  79 W5        29.97S WCI  13
JUNEAU         CLEAR     16  12  84 SW3       29.99S
$$

LSZ147-162-260600-
LAKE SUPERIOR

STATION/POSITION TIME  TEMP    WIND        PRES    WAVE
                       AIR SEA DIR/SP/G            HT/PER
                 (UTC) (F)     (DEG/KT/KT) (MB)    (FT/S)
DEVILS ISLAND    0500   29     230/ 17/ 21 1008.0S
PORT WING        0430   27     190/  6/ 10 1007.8F
SAXON HARBOR     0430   26     200/  6/ 12 1008.5R
$$

LMZ867-665-643>646-260600-
LAKE MICHIGAN

STATION/POSITION TIME  TEMP    WIND        PRES    WAVE
                       AIR SEA DIR/SP/G            HT/PER
                 (UTC) (F)     (DEG/KT/KT) (MB)    (FT/S)
NORTHPORT PIER   0440   20        CALM     1012.2R
SISTER BAY       0435   20        CALM       N/A
KEWAUNEE LAKESHO 0448   20     270/  9/ 12 1013.1R
SHEBOYGAN LAKESH 0500   21     260/ 11/ 13 1015.6R
PORT WASHINGTON  0440   22     270/  9/ 16 1016.3S
MILWAUKEE LAKESH 0450   25     280/ 12/ 13   N/A
KENOSHA   LAKESH 0500   24     270/  8/ 12 1016.6
$$

TC  - TEMPERATURE IN CELSIUS
VSB - VISIBILITY IN STATUTE MILES
WCI - WIND CHILL INDEX
HX  - HEAT INDEX





USA.gov is the U.S. government's official web portal to all federal, state and local government web resources and services.